STARLINK-31561, 59352

Orbit data source: Space-Track

STARLINK-31561, 59352 is a payload satellite owned by SpaceX/Seattle (US) in LEO that was launched on Sun, 31 Mar 2024 UTC via an FALCON 9 launch vehicle from the Air Force Eastern Test Range (AFETR). Payload-class satellites include a variety of spacecraft equipped with specific instruments for various scientific and technological missions. These include communications satellites like Starlink; space stations such as the ISS; scientific satellites like the Hubble; Earth observation satellites from companies like Planet Labs, Umbra, and HawkEye 360; GPS; miniature CubeSats for education and research; and military/defense satellites.

Loading next visibility...
Identifier
59352, 2024-060E
Orbit
LEO
Country
Flag of USUS
Related business
Manufacturer
SpaceX/Seattle
Mission
Operational Commercial Communications
Bus & Motor
STARLINK V2M, Unknown motor
Mass
730 kg wet, ~700 kg dry
Launch date (UTC)
2024-03-31 (2 years ago)
Launch vehicle
FALCON 9
Launch site
Air Force Eastern Test Range (AFETR)
Object type
Payload
Rocket body
Debris
Shape & HBR
Box + 2 Pan, 17.7 m
Radar Cross Section
33.884 m², Large (>1 m²)

Expand to show TLE details & history
Last TLE update: 2 days ago

TLE from 2 days ago
0 STARLINK-31561
1 59352U 24060E   26171.31975713  .00000302  00000-0  20500-4 0  9995
2 59352  43.0044  39.8359 0000952 289.9173  70.1577 15.27581344125761
Epoch: 2026-06-20T07:40Z
TLE epoch observation values (Epoch: 2026-06-20T07:40:27.016Z)
Latitude
0.00006°
Longitude
16.18732°
Altitude
482.599 km
Speed
7.626 km/s
True Right ascension
02h 39m 20s
True Declination
0° 00' 00"
Sunlit
Object was in daylight at epoch
Visualization orbit readout
Latitude
Unknown
Longitude
Unknown
Altitude
Unknown
Speed
Unknown
Apparent Right ascension
Unknown
Apparent Declination
Unknown
Sunlit
N/A
Visualization observer readout
Local Sidereal Time
23:18:38
Azimuth
Unknown
Elevation
Unknown
Doppler factor
Unknown
Orbital elements
Apogee altitude
485.643 km
Perigee altitude
484.336 km
Semi-major axis
6,863.127 km
Eccentricity
0.0001
Inclination
43.0044°
RAAN
39.8359°
Arg. of periapsis
289.9173°
True anomaly
70.16796°
Mean anomaly
70.1577°
Eccentric anomaly
70.16283°
Mean motion
3.81733 °/min
Orbital period
94.31 mins
BSTAR
0.0000205
Loading maneuver chart data...
Computing Atmospheric mass density...
Loading historical data...
Loading historical data...
Loading historical data...
Loading historical data...
Loading historical data...
Loading historical data...
Loading historical data...

Documentation

Showing up to 5 results
|